Location: Ottawa
(45.4167°N, 75.7000°W)
Time: 16:52:30
(UTC-04:00)

Tiangong 2 - Pass Details

Date: 14 October 2017
Orbit: 388 x 392 km, 42.8° (Epoch: 17 October)

Event Time Altitude Azimuth Distance (km) Brightness Sun altitude
Exits shadow 06:30:51 13° 261° (W) 1,276 3.1 -9.0°
Maximum altitude 06:33:35 49° 187° (S) 511 1.6 -8.6°
Drops below altitude 10° 06:36:42 10° 111° (ESE) 1,421 5.4 -8.0°
Sets 06:38:49 0° 106° (ESE) 2,277 7.0 -7.6°
